Weather History for KBRO - January, 2013

Change the Weather History Date:

Wednesday, January 2, 2013

  Actual Average Record
Temperature  
Mean Temperature 49 °F 60 °F  
Max Temperature 55 °F 70 °F 87 °F (2006)
Min Temperature 43 °F 51 °F 26 °F (1979)
Degree Days  
Heating Degree Days 16 6  
Month to date heating degree days 17 12  
Since 1 July heating degree days 97 231  
Cooling Degree Days 0 2  
Month to date cooling degree days 0 4  
Year to date cooling degree days 0 4  
Moisture  
Dew Point 46 °F    
Average Humidity 95    
Maximum Humidity 100    
Minimum Humidity 89    
Precipitation  
Precipitation 0.57 in 0.04 in 0.57 in (2013)
Month to date precipitation 0.61 0.07  
Year to date precipitation 0.61 0.07  
Sea Level Pressure  
Sea Level Pressure 30.20 in    
Wind  
Wind Speed 12 mph (NNW)    
Max Wind Speed 18 mph    
Max Gust Speed 23 mph    
Visibility 8 miles    
Events Rain    
T = Trace of Precipitation, MM = Missing Value Source: NWS Daily Summary

Daily Weather History Graph

Daily Weather History Graph

Search for Another Location

Airport or City:

Trip Planner

Search our weather history database for the weather conditions in past years. The results will help you decide how hot, cold, wet, or windy it might be!

Date:

Astronomy

Jan. 02, 2013 Rise Set
Actual Time 7:17 AM CST 5:50 PM CST
Civil Twilight 6:51 AM CST 6:16 PM CST
Nautical Twilight 6:23 AM CST 6:44 PM CST
Astronomical Twilight 5:55 AM CST 7:12 PM CST
Moon 10:50 PM CST (1/2) 10:30 AM CST (1/2)
Length of Visible Light 11h 24m
Length of Day
10h 33m
Waning Gibbous, 75% of the Moon is Illuminated
Jan 2
Waning Gibbous
Jan 4
Last Quarter
Jan 11
New
Jan 18
First Quarter
Jan 26
Full

Hourly Weather History & Observations

Time (CST) Temp. Windchill Dew Point Humidity Pressure Visibility Wind Dir Wind Speed Gust Speed Precip Events Conditions
12:45 AM 53.6 °F - 51.8 °F 94% 30.12 in 10.0 mi NNW 8.1 mph - 0.05 in Rain Light Rain
12:53 AM 54.0 °F - 52.0 °F 93% 30.12 in 10.0 mi NW 10.4 mph - 0.05 in Rain Light Rain
1:24 AM 53.6 °F - 51.8 °F 94% 30.13 in 10.0 mi NW 12.7 mph - 0.01 in Rain Light Rain
1:34 AM 53.6 °F - 51.8 °F 94% 30.13 in 8.0 mi NNW 12.7 mph 19.6 mph 0.03 in Rain Rain
1:53 AM 53.1 °F - 51.1 °F 93% 30.13 in 6.0 mi NNW 11.5 mph - 0.06 in Rain Rain
2:01 AM 53.6 °F - 51.8 °F 94% 30.14 in 6.0 mi NNW 10.4 mph - 0.02 in Rain Heavy Rain
2:53 AM 52.0 °F - 51.1 °F 97% 30.12 in 10.0 mi North 10.4 mph - 0.08 in Rain Light Rain
3:53 AM 51.1 °F - 48.9 °F 92% 30.14 in 10.0 mi NNW 13.8 mph 21.9 mph 0.00 in Rain Light Rain
4:53 AM 51.1 °F - 48.0 °F 89% 30.15 in 10.0 mi NNW 12.7 mph - 0.00 in Rain Light Rain
5:04 AM 50.0 °F - 48.2 °F 94% 30.17 in 10.0 mi NNW 11.5 mph 20.7 mph 0.00 in Rain Light Rain
5:27 AM 50.0 °F - 48.2 °F 94% 30.18 in 9.0 mi NNW 16.1 mph 20.7 mph 0.01 in Rain Light Rain
5:53 AM 50.0 °F - 48.0 °F 93% 30.17 in 10.0 mi NNW 13.8 mph 20.7 mph 0.01 in   Overcast
6:53 AM 48.9 °F - 46.9 °F 93% 30.19 in 10.0 mi NNW 13.8 mph 20.7 mph 0.01 in Rain Light Rain
7:53 AM 48.9 °F - 46.9 °F 93% 30.21 in 8.0 mi NNW 10.4 mph - 0.02 in Rain Light Rain
8:53 AM 48.0 °F - 46.9 °F 96% 30.25 in 5.0 mi NNW 9.2 mph - 0.12 in Rain Light Rain
9:53 AM 48.0 °F - 46.9 °F 96% 30.26 in 8.0 mi NNW 11.5 mph 20.7 mph 0.01 in   Overcast
10:53 AM 48.9 °F - 46.0 °F 90% 30.24 in 9.0 mi North 13.8 mph 19.6 mph N/A   Overcast
11:53 AM 48.0 °F - 46.0 °F 93% 30.23 in 8.0 mi NNW 13.8 mph 20.7 mph N/A   Overcast
12:11 PM 48.2 °F - 46.4 °F 93% 30.22 in 8.0 mi North 10.4 mph 21.9 mph N/A   Overcast
12:49 PM 48.2 °F - 46.4 °F 93% 30.19 in 9.0 mi NNW 13.8 mph 19.6 mph 0.00 in   Overcast
12:53 PM 48.0 °F - 46.0 °F 93% 30.19 in 9.0 mi NNW 10.4 mph 19.6 mph 0.00 in   Overcast
1:53 PM 46.9 °F - 44.1 °F 90% 30.19 in 8.0 mi NNW 10.4 mph 18.4 mph N/A   Overcast
2:27 PM 46.4 °F 41.1 °F 44.6 °F 93% 30.18 in 9.0 mi NNW 11.5 mph 19.6 mph N/A   Overcast
2:53 PM 46.9 °F - 44.1 °F 90% 30.18 in 9.0 mi North 10.4 mph - 0.00 in   Overcast
3:01 PM 46.4 °F 41.5 °F 44.6 °F 93% 30.18 in 9.0 mi NNW 10.4 mph - N/A   Overcast
3:53 PM 46.0 °F 41.4 °F 44.1 °F 93% 30.19 in 9.0 mi NNW 9.2 mph - N/A   Overcast
4:10 PM 46.4 °F 41.5 °F 42.8 °F 87% 30.21 in 9.0 mi NW 10.4 mph - 0.00 in Rain Light Rain
4:46 PM 44.6 °F 38.8 °F 42.8 °F 93% 30.21 in 8.0 mi NW 11.5 mph 19.6 mph 0.00 in Rain Light Rain
4:53 PM 45.0 °F 38.5 °F 43.0 °F 93% 30.21 in 8.0 mi NW 13.8 mph - 0.00 in Rain Light Rain
5:07 PM 44.6 °F 37.8 °F 42.8 °F 93% 30.21 in 8.0 mi NW 15.0 mph - 0.00 in Rain Light Rain
5:29 PM 44.6 °F 38.1 °F 42.8 °F 93% 30.21 in 8.0 mi NW 13.8 mph - 0.00 in Rain Light Rain
5:53 PM 44.1 °F 37.7 °F 43.0 °F 96% 30.22 in 8.0 mi NW 12.7 mph 19.6 mph 0.01 in Rain Light Rain
6:46 PM 42.8 °F 36.2 °F 42.8 °F 100% 30.23 in 7.0 mi NW 12.7 mph 18.4 mph 0.05 in Rain Rain
6:53 PM 43.0 °F 36.8 °F 42.1 °F 97% 30.23 in 7.0 mi NW 11.5 mph 19.6 mph 0.05 in Rain Rain
7:05 PM 42.8 °F 37.0 °F 42.8 °F 100% 30.24 in 8.0 mi NW 10.4 mph - 0.02 in Rain Light Rain
7:53 PM 43.0 °F 36.8 °F 42.1 °F 97% 30.24 in 8.0 mi NNW 11.5 mph - 0.06 in Rain Light Rain
8:12 PM 42.8 °F 37.0 °F 42.8 °F 100% 30.24 in 9.0 mi NNW 10.4 mph - 0.00 in Rain Light Rain
8:19 PM 42.8 °F 36.6 °F 42.8 °F 100% 30.25 in 9.0 mi NNW 11.5 mph - 0.01 in Rain Light Rain
8:51 PM 42.8 °F 38.0 °F 42.8 °F 100% 30.24 in 7.0 mi NNW 8.1 mph - 0.02 in Rain Light Rain
8:53 PM 43.0 °F 37.2 °F 42.1 °F 97% 30.24 in 7.0 mi North 10.4 mph - 0.02 in Rain Light Rain
9:11 PM 42.8 °F 36.6 °F 42.8 °F 100% 30.26 in 6.0 mi NW 11.5 mph - 0.01 in Rain Rain
9:33 PM 42.8 °F 36.2 °F 42.8 °F 100% 30.26 in 8.0 mi NW 12.7 mph 19.6 mph 0.02 in Rain Light Rain
9:53 PM 43.0 °F 36.4 °F 42.1 °F 97% 30.27 in 8.0 mi NW 12.7 mph - 0.02 in Rain Light Rain
10:53 PM 43.0 °F 36.8 °F 42.1 °F 97% 30.26 in 8.0 mi NNW 11.5 mph - 0.03 in Rain Light Rain
11:53 PM 43.0 °F 37.2 °F 42.1 °F 97% 30.26 in 7.0 mi NNW 10.4 mph 18.4 mph 0.02 in Rain Light Rain